Tracking 22124 objects as of 23-Jan-2021
HD Live streaming from Space Station
objects crossing your sky now

ICEYE-X7

Track ICEYE-X7 now!
10-day predictions


NORAD ID: 46496
Int'l Code: 2020-068L
Perigee: 554.7 km
Apogee: 575.0 km
Inclination: 97.7 °
Period: 95.8 minutes
Semi major axis: 6935 km
RCS: Unknown
Launch date: September 28, 2020
Source: (FIN)
Launch site: PLESETSK MISSILE AND SPACE COMPLEX (PKMTR)
aabbcc
Your satellite tracking list
Your tracking list is empty




NASA's NSSDC Master Catalog

Two Line Element Set (TLE):
1 46496U 20068L   21022.80862487 -.00000346  00000-0 -21088-4 0  9993
2 46496  97.6796 321.2139 0014616 204.1595 240.1196 15.02989919 17442
Source of the keplerian elements: AFSPC